When you browse on this site, cookies collect data to enhance your experience and personalize the content and advertising you see.
Visit our Privacy Policy to learn more. By continuing to use the site, you agree to this use of cookies and data.
  • In Belgien
  • Länderverzeichnis
  • Für 7 Tage
  • Wassertemperatur
  • Satellitenkarten
  • Wetterkarte
  • Widgets
  • user-avatar
    Anmelden

    Stündliche Wetter Vahnovo

    Heute, 22 April, Montag

    Zeit Temperatur Niederschläge Wind Luftdruck Luftfeuchtigkeit
    00:00 +8°C° 0 mm 0 m/S 753 mmHg 43%
    01:00 +8°C° 0 mm 1 m/S 753 mmHg 44%
    02:00 +8°C° 0 mm 1 m/S 753 mmHg 44%
    03:00 +8°C° 0 mm 1 m/S 753 mmHg 45%
    04:00 +7°C° 0 mm 1 m/S 753 mmHg 47%
    05:00 +7°C° 0 mm 1 m/S 753 mmHg 48%
    06:00 +9°C° 0 mm 1 m/S 753 mmHg 45%
    07:00 +10°C° 0 mm 2 m/S 753 mmHg 41%
    08:00 +13°C° 0 mm 2 m/S 754 mmHg 37%
    09:00 +15°C° 0 mm 2 m/S 754 mmHg 34%
    10:00 +16°C° 0 mm 2 m/S 754 mmHg 30%
    11:00 +17°C° 0 mm 2 m/S 754 mmHg 27%
    12:00 +17°C° 0 mm 3 m/S 753 mmHg 27%
    13:00 +17°C° 0 mm 3 m/S 753 mmHg 28%
    14:00 +18°C° 0 mm 3 m/S 753 mmHg 28%
    15:00 +17°C° 0 mm 2 m/S 753 mmHg 31%
    16:00 +17°C° 0 mm 2 m/S 753 mmHg 33%
    17:00 +17°C° 0 mm 2 m/S 753 mmHg 35%
    18:00 +16°C° 0 mm 2 m/S 753 mmHg 37%
    19:00 +15°C° 0 mm 1 m/S 753 mmHg 39%
    20:00 +14°C° 0 mm 1 m/S 753 mmHg 41%
    21:00 +13°C° 0 mm 1 m/S 754 mmHg 44%
    22:00 +12°C° 0 mm 2 m/S 754 mmHg 47%
    23:00 +10°C° 0 mm 2 m/S 754 mmHg 49%

    Morgen, 23 April, Dienstag

    Zeit Temperatur Niederschläge Wind Luftdruck Luftfeuchtigkeit
    00:00 +10°C° 0 mm 2 m/S 754 mmHg 50%
    01:00 +11°C° 0 mm 1 m/S 754 mmHg 51%
    02:00 +11°C° 0 mm 1 m/S 754 mmHg 52%
    03:00 +11°C° 0 mm 1 m/S 754 mmHg 53%
    04:00 +11°C° 0 mm 1 m/S 755 mmHg 54%
    05:00 +11°C° 0 mm 1 m/S 755 mmHg 55%
    06:00 +12°C° 0 mm 1 m/S 755 mmHg 52%
    07:00 +13°C° 0 mm 1 m/S 755 mmHg 49%
    08:00 +14°C° 0 mm 1 m/S 755 mmHg 46%
    09:00 +15°C° 0 mm 2 m/S 755 mmHg 42%
    10:00 +16°C° 0 mm 2 m/S 755 mmHg 38%
    11:00 +17°C° 0 mm 2 m/S 755 mmHg 34%
    12:00 +17°C° 0 mm 2 m/S 755 mmHg 34%
    13:00 +17°C° 0 mm 3 m/S 755 mmHg 34%
    14:00 +18°C° 0 mm 3 m/S 755 mmHg 34%
    15:00 +17°C° 0 mm 3 m/S 754 mmHg 37%
    16:00 +17°C° 0 mm 2 m/S 754 mmHg 39%
    17:00 +17°C° 0 mm 2 m/S 754 mmHg 41%
    18:00 +15°C° 0 mm 2 m/S 754 mmHg 45%
    19:00 +14°C° 0 mm 2 m/S 754 mmHg 48%
    20:00 +12°C° 0 mm 3 m/S 754 mmHg 52%
    21:00 +11°C° 0 mm 3 m/S 754 mmHg 53%
    22:00 +11°C° 0 mm 3 m/S 754 mmHg 54%
    23:00 +11°C° 0 mm 3 m/S 754 mmHg 56%

    übermorgen, 24 April, Mittwoch

    Zeit Temperatur Niederschläge Wind Luftdruck Luftfeuchtigkeit
    00:00 +11°C° 0 mm 3 m/S 754 mmHg 56%
    01:00 +11°C° 0 mm 3 m/S 754 mmHg 57%
    02:00 +11°C° 0 mm 3 m/S 755 mmHg 58%
    03:00 +11°C° 0 mm 3 m/S 755 mmHg 60%
    04:00 +10°C° 0 mm 3 m/S 755 mmHg 61%
    05:00 +10°C° 0 mm 3 m/S 754 mmHg 63%
    06:00 +12°C° 0 mm 3 m/S 755 mmHg 60%
    07:00 +13°C° 0 mm 3 m/S 755 mmHg 57%
    08:00 +14°C° 0 mm 3 m/S 755 mmHg 54%
    09:00 +17°C° 0 mm 4 m/S 755 mmHg 50%
    10:00 +18°C° 0 mm 4 m/S 754 mmHg 45%
    11:00 +20°C° 0 mm 4 m/S 754 mmHg 41%
    12:00 +20°C° 0 mm 4 m/S 754 mmHg 40%
    13:00 +21°C° 0 mm 4 m/S 754 mmHg 39%
    14:00 +21°C° 0 mm 4 m/S 754 mmHg 38%
    15:00 +21°C° 0 mm 4 m/S 753 mmHg 41%
    16:00 +20°C° 0 mm 3 m/S 753 mmHg 43%
    17:00 +20°C° 0 mm 3 m/S 753 mmHg 46%
    18:00 +19°C° 0 mm 3 m/S 753 mmHg 49%
    19:00 +17°C° 0 mm 2 m/S 753 mmHg 53%
    20:00 +15°C° 0 mm 2 m/S 753 mmHg 57%
    21:00 +15°C° 0 mm 2 m/S 753 mmHg 59%
    22:00 +14°C° 0 mm 2 m/S 753 mmHg 60%
    23:00 +14°C° 0 mm 2 m/S 753 mmHg 62%

    25 April, Donnerstag

    Zeit Temperatur Niederschläge Wind Luftdruck Luftfeuchtigkeit
    00:00 +13°C° 0 mm 2 m/S 753 mmHg 63%
    01:00 +13°C° 0 mm 2 m/S 753 mmHg 65%
    02:00 +12°C° 0 mm 2 m/S 754 mmHg 66%
    03:00 +12°C° 0 mm 2 m/S 754 mmHg 67%
    04:00 +12°C° 0 mm 2 m/S 754 mmHg 69%
    05:00 +10°C° 0 mm 2 m/S 754 mmHg 70%
    06:00 +13°C° 0 mm 2 m/S 754 mmHg 64%
    07:00 +15°C° 0 mm 2 m/S 754 mmHg 58%
    08:00 +17°C° 0 mm 2 m/S 754 mmHg 53%
    09:00 +19°C° 0 mm 2 m/S 754 mmHg 48%
    10:00 +20°C° 0 mm 2 m/S 754 mmHg 44%
    11:00 +21°C° 0 mm 3 m/S 754 mmHg 39%
    12:00 +23°C° 0 mm 2 m/S 753 mmHg 38%
    13:00 +23°C° 0 mm 2 m/S 753 mmHg 36%
    14:00 +24°C° 0 mm 2 m/S 753 mmHg 34%
    15:00 +24°C° 0 mm 2 m/S 753 mmHg 36%
    16:00 +23°C° 0 mm 2 m/S 752 mmHg 38%
    17:00 +23°C° 0 mm 1 m/S 752 mmHg 40%
    18:00 +21°C° 0 mm 1 m/S 752 mmHg 44%
    19:00 +20°C° 0 mm 1 m/S 752 mmHg 47%
    20:00 +18°C° 0 mm 1 m/S 752 mmHg 51%
    21:00 +16°C° 0 mm 1 m/S 752 mmHg 53%
    22:00 +16°C° 0 mm 1 m/S 752 mmHg 55%
    23:00 +15°C° 0 mm 1 m/S 752 mmHg 57%

    26 April, Freitag

    Zeit Temperatur Niederschläge Wind Luftdruck Luftfeuchtigkeit
    00:00 +15°C° 0 mm 1 m/S 752 mmHg 60%
    01:00 +14°C° 0 mm 1 m/S 752 mmHg 62%
    02:00 +14°C° 0 mm 1 m/S 752 mmHg 64%
    03:00 +13°C° 0 mm 1 m/S 752 mmHg 65%
    04:00 +13°C° 0 mm 1 m/S 752 mmHg 66%
    05:00 +13°C° 0 mm 1 m/S 752 mmHg 68%
    06:00 +15°C° 0 mm 1 m/S 752 mmHg 62%
    07:00 +18°C° 0 mm 1 m/S 752 mmHg 56%
    08:00 +19°C° 0 mm 1 m/S 752 mmHg 50%
    09:00 +20°C° 0 mm 2 m/S 752 mmHg 47%
    10:00 +21°C° 0 mm 2 m/S 752 mmHg 43%
    11:00 +23°C° 0 mm 2 m/S 752 mmHg 39%
    12:00 +23°C° 0 mm 2 m/S 751 mmHg 39%
    13:00 +23°C° 0 mm 2 m/S 751 mmHg 40%
    14:00 +23°C° 0 mm 2 m/S 751 mmHg 40%
    15:00 +23°C° 0 mm 1 m/S 751 mmHg 43%
    16:00 +22°C° 0 mm 1 m/S 750 mmHg 46%
    17:00 +22°C° 0 mm 1 m/S 750 mmHg 49%
    18:00 +21°C° 0 mm 1 m/S 750 mmHg 52%
    19:00 +20°C° 0 mm 1 m/S 750 mmHg 54%
    20:00 +18°C° 0 mm 1 m/S 750 mmHg 57%
    21:00 +18°C° 0.4 mm 1 m/S 750 mmHg 61%
    22:00 +16°C° 0.4 mm 1 m/S 750 mmHg 65%
    23:00 +15°C° 0.4 mm 1 m/S 749 mmHg 69%

    27 April, Samstag

    Zeit Temperatur Niederschläge Wind Luftdruck Luftfeuchtigkeit
    00:00 +15°C° 1 mm 1 m/S 749 mmHg 73%
    01:00 +14°C° 1 mm 1 m/S 749 mmHg 77%
    02:00 +14°C° 1 mm 1 m/S 749 mmHg 80%
    03:00 +14°C° 0.2 mm 1 m/S 749 mmHg 80%
    04:00 +13°C° 0.2 mm 1 m/S 749 mmHg 80%
    05:00 +12°C° 0.2 mm 0 m/S 749 mmHg 80%
    06:00 +15°C° 0.1 mm 1 m/S 749 mmHg 75%
    07:00 +16°C° 0.1 mm 1 m/S 749 mmHg 69%
    08:00 +19°C° 0.1 mm 1 m/S 749 mmHg 64%
    09:00 +19°C° 0 mm 2 m/S 749 mmHg 57%
    10:00 +20°C° 0 mm 2 m/S 748 mmHg 51%
    11:00 +23°C° 0 mm 2 m/S 748 mmHg 45%
    12:00 +21°C° 0 mm 3 m/S 748 mmHg 46%
    13:00 +21°C° 0 mm 3 m/S 748 mmHg 48%
    14:00 +21°C° 0 mm 3 m/S 748 mmHg 50%
    15:00 +21°C° 0 mm 3 m/S 747 mmHg 51%
    16:00 +20°C° 0 mm 3 m/S 747 mmHg 53%
    17:00 +20°C° 0 mm 2 m/S 747 mmHg 55%
    18:00 +19°C° 0 mm 2 m/S 747 mmHg 57%
    19:00 +18°C° 0 mm 2 m/S 747 mmHg 60%
    20:00 +17°C° 0 mm 2 m/S 747 mmHg 62%
    21:00 +16°C° 0 mm 3 m/S 747 mmHg 63%
    22:00 +16°C° 0 mm 3 m/S 747 mmHg 63%
    23:00 +14°C° 0 mm 3 m/S 747 mmHg 64%
    Mehr zeigen